W1HS Weather Reports


Display with metric or nautical units.
time (UTC)temp
F
wind
direction
speed
MPH
gust
MPH
rain 1hr
in
rain 24hr
in
rain mn
in
humidity
%
barometer
mb
20260906225719 65 338 1.0 3.0 0.00 0.62 0.52 64 993.8
20260906224719 66 0.0 0.0 0.00 0.62 0.52 65 993.7
20260906223719 65 0.0 0.0 0.00 0.62 0.52 63 993.6
20260906222719 65 270 1.0 3.0 0.00 0.62 0.52 64 993.6
20260906221719 65 0.0 0.0 0.00 0.62 0.52 66 993.6
20260906220719 66 0 1.0 4.0 0.00 0.62 0.52 65 993.6
20260906215719 67 0.0 0.0 0.00 0.62 0.52 63 993.5
20260906214719 68 0.0 2.0 0.00 0.62 0.52 58 993.6
20260906213719 69 225 1.0 2.0 0.00 0.62 0.52 58 993.4
20260906212719 69 0.0 1.0 0.00 0.62 0.52 58 993.4
20260906211718 68 270 2.0 3.0 0.00 0.62 0.52 56 993.5
20260906210718 69 0.0 2.0 0.00 0.62 0.52 58 993.4
20260906205718 69 293 1.0 4.0 0.00 0.62 0.52 56 993.3
20260906204719 69 68 1.0 2.0 0.00 0.62 0.52 55 993.3
20260906203718 69 68 3.0 9.0 0.00 0.62 0.52 51 993.2
20260906202719 69 45 6.0 13.0 0.00 0.62 0.52 51 993.1
20260906201718 69 0.0 1.0 0.00 0.62 0.52 59 993.1
20260906200718 69 293 1.0 3.0 0.00 0.62 0.52 55 993.2
20260906195718 69 0.0 3.0 0.00 0.62 0.52 58 993.2
20260906194718 69 0 4.0 7.0 0.00 0.62 0.52 54 993.2
20260906193719 69 135 2.0 4.0 0.00 0.62 0.52 54 993.3
20260906192718 69 315 2.0 8.0 0.00 0.62 0.52 55 993.3
20260906191718 69 293 3.0 5.0 0.00 0.62 0.52 61 993.4
20260906190718 69 0.0 1.0 0.00 0.62 0.52 63 993.3
20260906185719 68 135 3.0 9.0 0.00 0.62 0.52 61 993.3
20260906184718 68 23 3.0 9.0 0.00 0.62 0.52 65 993.3
20260906183719 68 293 2.0 3.0 0.00 0.62 0.52 64 993.4
20260906182718 68 135 2.0 9.0 0.00 0.62 0.52 71 993.4
20260906181718 67 315 1.0 2.0 0.00 0.62 0.52 69 993.5
20260906180718 67 90 2.0 7.0 0.00 0.62 0.52 71 993.5
20260906175718 67 0.0 3.0 0.00 0.62 0.52 73 993.6
20260906174718 66 315 1.0 3.0 0.00 0.62 0.52 76 993.6
20260906173718 65 293 4.0 7.0 0.00 0.62 0.52 76 993.7
20260906172718 65 293 1.0 2.0 0.00 0.62 0.52 82 993.9
20260906171720 65 293 1.0 4.0 0.00 0.62 0.52 83 994.1
20260906170718 64 0.0 2.0 0.00 0.62 0.52 84 994.0
20260906165718 63 0.0 2.0 0.00 0.62 0.52 85 994.0
20260906164718 62 0 1.0 4.0 0.00 0.62 0.52 90 994.1
20260906163718 61 23 1.0 2.0 0.00 0.62 0.52 92 994.2
20260906162718 60 315 2.0 4.0 0.00 0.62 0.52 94 994.2
20260906161720 60 0.0 0.0 0.00 0.62 0.52 92 994.2
20260906160718 59 0.0 0.0 0.00 0.62 0.52 90 994.2
20260906155718 61 0.0 4.0 0.00 0.62 0.52 89 994.3
20260906154718 62 90 1.0 3.0 0.00 0.62 0.52 87 994.2
20260906153824 62 135 1.0 2.0 0.00 0.62 0.52 86 994.2
20260906153618 62 0.0 1.0 0.00 0.62 0.52 87 994.3
20260906152618 61 0.0 1.0 0.00 0.62 0.52 90 994.3
20260906151618 60 0.0 0.0 0.00 0.62 0.52 92 994.2
20260906150618 60 45 1.0 4.0 0.00 0.62 0.52 91 994.3
20260906145618 60 0.0 1.0 0.00 0.62 0.52 91 994.3
20260906144620 59 315 1.0 3.0 0.00 0.62 0.52 92 994.3
20260906143618 59 0.0 0.0 0.00 0.62 0.52 93 994.3
20260906142618 59 338 1.0 5.0 0.00 0.62 0.52 93 994.3
20260906141618 59 0.0 0.0 0.00 0.62 0.52 93 994.3
20260906140618 58 315 1.0 3.0 0.00 0.62 0.52 95 994.2
20260906135618 57 0.0 0.0 0.02 0.62 0.52 96 994.1
20260906134618 57 0.0 0.0 0.02 0.62 0.52 96 994.1
20260906133620 57 0.0 0.0 0.02 0.62 0.52 97 994.0
20260906132618 57 0.0 1.0 0.02 0.62 0.52 96 994.1
20260906131618 57 0.0 0.0 0.03 0.62 0.52 97 994.2
20260906130618 56 0.0 0.0 0.08 0.62 0.52 96 994.2
20260906125618 56 0.0 0.0 0.08 0.60 0.50 96 994.1
20260906124618 56 0.0 0.0 0.08 0.60 0.50 96 994.0
20260906123618 56 0.0 0.0 0.08 0.60 0.50 96 994.0
20260906122620 56 0.0 0.0 0.08 0.60 0.50 96 994.0
20260906121620 56 0.0 0.0 0.07 0.59 0.49 96 994.0
20260906120620 56 0.0 0.0 0.02 0.54 0.44 96 994.0
20260906115619 56 0.0 0.0 0.01 0.52 0.42 96 993.9
20260906114620 56 0.0 0.0 0.01 0.52 0.42 96 993.9
20260906113620 56 0.0 0.0 0.01 0.52 0.42 96 993.6
20260906112620 56 0.0 0.0 0.02 0.52 0.42 96 993.6
20260906111620 56 0.0 0.0 0.02 0.52 0.42 96 993.5
20260906110625 56 0.0 0.0 0.02 0.52 0.42 96 993.5
20260906105620 56 0.0 0.0 0.02 0.51 0.41 96 993.3
20260906104620 56 0.0 0.0 0.03 0.51 0.41 96 993.3
20260906103620 56 0.0 2.0 0.08 0.51 0.41 96 993.2
20260906102620 56 68 1.0 3.0 0.08 0.50 0.40 96 993.1
20260906101619 56 0.0 0.0 0.09 0.50 0.40 96 993.3
20260906100619 56 0.0 0.0 0.10 0.50 0.40 96 993.2
20260906095620 56 0.0 0.0 0.10 0.49 0.39 96 993.1
20260906094619 56 0.0 0.0 0.10 0.48 0.38 96 993.0
20260906093619 56 0.0 0.0 0.06 0.43 0.33 96 992.9
20260906092619 56 0.0 0.0 0.05 0.42 0.32 96 992.8
20260906091620 56 0.0 0.0 0.04 0.41 0.31 96 992.5
20260906090620 56 0.0 0.0 0.03 0.40 0.30 96 992.5
20260906085619 56 0.0 0.0 0.03 0.39 0.29 96 992.5
20260906084619 56 0.0 0.0 0.03 0.38 0.28 96 992.4
20260906083621 56 0.0 0.0 0.04 0.37 0.27 96 992.3
20260906082619 56 0.0 0.0 0.07 0.37 0.27 96 992.4
20260906081621 56 0.0 0.0 0.13 0.37 0.27 96 992.3
20260906080621 56 0.0 0.0 0.20 0.37 0.27 96 992.4
20260906075618 56 0.0 0.0 0.22 0.36 0.26 96 992.3
20260906074619 57 0.0 0.0 0.23 0.35 0.25 95 992.4
20260906073620 57 45 1.0 2.0 0.21 0.33 0.23 95 992.4
20260906072619 58 0.0 1.0 0.18 0.30 0.20 96 992.3
20260906071619 58 0.0 0.0 0.12 0.24 0.14 96 992.4
20260906070620 58 0.0 0.0 0.05 0.17 0.07 96 992.3
20260906065620 58 0.0 1.0 0.02 0.14 0.04 96 992.3
20260906064621 58 0.0 3.0 0.00 0.12 0.02 96 992.3
20260906063620 58 0.0 0.0 0.00 0.12 0.02 96 992.3
20260906062619 58 0.0 0.0 0.00 0.12 0.02 96 992.2
20260906061621 58 248 1.0 3.0 0.01 0.12 0.02 96 992.1
20260906060619 58 0.0 0.0 0.01 0.12 0.02 96 992.1
20260906055619 58 0.0 0.0 0.01 0.12 0.02 95 992.2
20260906054621 58 0.0 0.0 0.01 0.12 0.02 95 992.2
20260906053619 58 0.0 0.0 0.01 0.12 0.02 95 992.2
20260906052622 58 0.0 0.0 0.01 0.12 0.02 95 992.2
20260906051619 58 0.0 0.0 0.00 0.11 0.01 95 992.2
20260906050619 58 0.0 0.0 0.00 0.11 0.01 95 992.2
20260906045619 59 0.0 0.0 0.01 0.11 0.01 95 992.3
20260906044619 59 0.0 0.0 0.01 0.11 0.01 95 992.3
20260906043623 59 0.0 2.0 0.01 0.11 0.01 95 992.4
20260906042619 59 0.0 0.0 0.02 0.11 0.01 95 992.4
20260906041619 59 180 1.0 3.0 0.02 0.11 0.01 95 992.4
20260906040619 59 0.0 0.0 0.03 0.11 0.01 94 992.3
20260906035620 59 0.0 0.0 0.03 0.10 0.10 94 992.3
20260906034619 59 0.0 0.0 0.04 0.10 0.10 94 992.4
20260906033620 59 0.0 0.0 0.06 0.10 0.10 93 992.2
20260906032619 59 0.0 0.0 0.07 0.09 0.09 93 992.2
20260906031619 59 0.0 0.0 0.08 0.09 0.09 92 992.0
20260906030619 59 0.0 0.0 0.08 0.08 0.08 92 991.9
20260906025619 59 0.0 0.0 0.07 0.07 0.07 92 991.8
20260906024619 59 0.0 0.0 0.06 0.06 0.06 91 991.9
20260906023619 59 0.0 0.0 0.04 0.04 0.04 91 991.9
20260906022622 60 0.0 1.0 0.02 0.02 0.02 90 991.9
20260906021619 60 0.0 1.0 0.01 0.01 0.01 90 991.8
20260906020619 60 0.0 2.0 0.00 0.00 0.00 89 991.7
20260906015619 61 0.0 2.0 0.00 0.00 0.00 89 991.7
20260906014619 61 0.0 0.0 0.00 0.00 0.00 87 991.7
20260906013619 61 113 1.0 3.0 0.00 0.00 0.00 87 991.6
20260906012621 61 0.0 0.0 0.00 0.00 0.00 86 991.5
20260906011722 62 0.0 3.0 0.00 0.00 0.00 86 991.5
20260906011021 62 113 1.0 3.0 0.00 0.00 0.00 85 991.5
20260906010019 62 0.0 2.0 0.00 0.00 0.00 84 991.5
20260906005019 62 0.0 0.0 0.00 0.00 0.00 84 991.4
20260906004021 63 90 1.0 3.0 0.00 0.00 0.00 83 991.2
20260906003019 63 90 4.0 9.0 0.00 0.00 0.00 82 991.1
20260906002021 64 90 1.0 6.0 0.00 0.00 0.00 80 991.1
20260906001019 65 45 1.0 3.0 0.00 0.00 0.00 79 991.1
20260906000019 66 68 3.0 6.0 0.00 0.00 0.00 78 990.8
20260905235018 66 0.0 1.0 0.00 0.00 0.00 77 990.7
20260905234019 66 0 1.0 5.0 0.00 0.00 0.00 76 990.6
20260905233019 67 0.0 2.0 0.00 0.00 0.00 76 990.6
20260905232019 67 338 1.0 3.0 0.00 0.00 0.00 76 990.5
20260905231019 68 113 1.0 3.0 0.00 0.00 0.00 76 990.4